EUS15VW LIPZ-EGPH

Flight info

Callsign EUS15VW
Flight time 2h 20m
Altitude 38000
Route ROKIB DCT BRENO DCT KONIN M726 MAH DCT ASPAT DCT MASEK L604 MAPOX DCT ABILU DCT SOGPO DCT BERGI DCT MIMVA L602 NALAX L46 ESHIN N110 ERKIT DCT AGPED
Aircraft B738/M-SDE2E3FGHIRWXY/LB1

Departure

Time 2026-04-23 04:17
Airport Venice Marco Polo Airport (LIPZ)

Arrival

Time 2026-04-23 06:37
Airport Edinburgh Airport (EGPH)
Time Latitude Longitude Altitude Speed Heading
2026-04-23 03:58 45.50776 12.34244 15 ft 0 kts 76°
2026-04-23 04:08 45.50772 12.34212 15 ft 4 kts 83°
2026-04-23 04:08 45.50770 12.34175 15 ft 4 kts 95°
2026-04-23 04:08 45.50775 12.34138 16 ft 4 kts 115°
2026-04-23 04:09 45.50787 12.34114 17 ft 0 kts 137°
2026-04-23 04:11 45.50786 12.34115 17 ft 1 kts 137°
2026-04-23 04:11 45.50772 12.34134 16 ft 5 kts 136°
2026-04-23 04:11 45.50731 12.34196 15 ft 12 kts 131°
2026-04-23 04:12 45.50665 12.34302 15 ft 16 kts 133°
2026-04-23 04:12 45.50555 12.34338 15 ft 17 kts 178°
2026-04-23 04:12 45.50432 12.34346 15 ft 18 kts 177°
2026-04-23 04:12 45.50316 12.34352 15 ft 16 kts 185°
2026-04-23 04:13 45.50225 12.34263 15 ft 17 kts 222°
2026-04-23 04:13 45.50136 12.34150 15 ft 18 kts 222°
2026-04-23 04:13 45.50042 12.34029 14 ft 19 kts 222°
2026-04-23 04:13 45.49944 12.33903 15 ft 19 kts 222°
2026-04-23 04:14 45.49844 12.33777 15 ft 20 kts 222°
2026-04-23 04:14 45.49763 12.33675 15 ft 14 kts 216°
2026-04-23 04:14 45.49676 12.33604 16 ft 15 kts 219°
2026-04-23 04:14 45.49593 12.33514 17 ft 14 kts 192°
2026-04-23 04:15 45.49561 12.33525 16 ft 14 kts 149°
2026-04-23 04:15 45.49469 12.33845 14 ft 0 kts 40°
2026-04-23 04:16 45.49575 12.33982 14 ft 59 kts 42°
2026-04-23 04:16 45.50084 12.34635 14 ft 134 kts 43°
2026-04-23 04:16 45.50888 12.35676 406 ft 161 kts 41°
2026-04-23 04:17 45.51697 12.36792 1386 ft 163 kts 44°
2026-04-23 04:17 45.52527 12.37975 2078 ft 181 kts 45°
2026-04-23 04:17 45.53457 12.39400 2512 ft 204 kts 55°
2026-04-23 04:17 45.53868 12.41327 3221 ft 208 kts 95°
2026-04-23 04:18 45.53567 12.43342 3982 ft 208 kts 101°
2026-04-23 04:18 45.53279 12.45366 4757 ft 208 kts 99°
2026-04-23 04:18 45.53028 12.47408 5505 ft 209 kts 98°
2026-04-23 04:18 45.52795 12.49466 6202 ft 212 kts 97°
2026-04-23 04:19 45.52358 12.51483 6882 ft 217 kts 121°
2026-04-23 04:19 45.51224 12.52913 7507 ft 227 kts 153°
2026-04-23 04:19 45.49601 12.53190 7819 ft 249 kts 192°
2026-04-23 04:19 45.47961 12.52377 8370 ft 258 kts 201°
2026-04-23 04:20 45.46458 12.50978 9115 ft 261 kts 230°
2026-04-23 04:20 45.45601 12.48656 9732 ft 273 kts 259°
2026-04-23 04:20 45.45386 12.45914 10127 ft 290 kts 269°
2026-04-23 04:20 45.45296 12.42942 10636 ft 306 kts 270°
2026-04-23 04:21 45.45215 12.39792 10828 ft 332 kts 270°
2026-04-23 04:21 45.45120 12.36454 11205 ft 348 kts 270°
2026-04-23 04:21 45.45006 12.32967 11899 ft 354 kts 269°
2026-04-23 04:21 45.44881 12.29443 12740 ft 357 kts 269°
2026-04-23 04:22 45.44750 12.25900 13591 ft 360 kts 269°
2026-04-23 04:22 45.44616 12.22324 14391 ft 364 kts 269°
2026-04-23 04:22 45.44478 12.18713 15134 ft 368 kts 269°
2026-04-23 04:22 45.44452 12.15053 15887 ft 370 kts 280°
2026-04-23 04:23 45.45234 12.11595 16660 ft 367 kts 301°
2026-04-23 04:23 45.46775 12.08729 17442 ft 365 kts 320°
2026-04-23 04:23 45.48802 12.06561 18209 ft 367 kts 328°
2026-04-23 04:23 45.50936 12.04525 18897 ft 371 kts 329°
2026-04-23 04:24 45.53103 12.02497 19547 ft 375 kts 329°
2026-04-23 04:24 45.55291 12.00437 20174 ft 379 kts 329°
2026-04-23 04:24 45.57496 11.98337 20800 ft 383 kts 329°
2026-04-23 04:24 45.58969 11.96922 21219 ft 386 kts 328°
2026-04-23 04:25 45.61933 11.94053 22054 ft 390 kts 328°
2026-04-23 04:25 45.64195 11.91855 22647 ft 395 kts 328°
2026-04-23 04:25 45.66482 11.89627 23218 ft 399 kts 328°
2026-04-23 04:25 45.68013 11.88135 23602 ft 402 kts 328°
2026-04-23 04:26 45.71122 11.85103 24285 ft 406 kts 328°
2026-04-23 04:26 45.72678 11.83613 24615 ft 407 kts 331°
2026-04-23 04:26 45.75169 11.81677 25089 ft 408 kts 337°
2026-04-23 04:26 45.77762 11.79970 25559 ft 410 kts 338°
2026-04-23 04:27 45.80371 11.78291 26035 ft 413 kts 338°
2026-04-23 04:27 45.82990 11.76541 26486 ft 416 kts 336°
2026-04-23 04:27 45.85575 11.74763 26905 ft 419 kts 336°
2026-04-23 04:28 45.90860 11.71094 27765 ft 424 kts 336°
2026-04-23 04:28 45.93540 11.69288 28194 ft 426 kts 340°
2026-04-23 04:28 45.96392 11.68118 28575 ft 427 kts 349°
2026-04-23 04:28 45.99313 11.67259 28993 ft 429 kts 350°
2026-04-23 04:29 46.02249 11.66456 29389 ft 431 kts 350°
2026-04-23 04:29 46.05202 11.65652 29761 ft 433 kts 350°
2026-04-23 04:29 46.08177 11.64823 30091 ft 437 kts 350°
2026-04-23 04:29 46.11161 11.63970 30410 ft 439 kts 349°
2026-04-23 04:30 46.14165 11.63093 30727 ft 440 kts 349°
2026-04-23 04:30 46.17085 11.62228 31109 ft 440 kts 349°
2026-04-23 04:30 46.20089 11.61332 31560 ft 438 kts 349°
2026-04-23 04:30 46.23071 11.60439 31978 ft 437 kts 349°
2026-04-23 04:31 46.26042 11.59545 32412 ft 435 kts 349°
2026-04-23 04:31 46.29011 11.58654 32789 ft 436 kts 349°
2026-04-23 04:31 46.31983 11.57762 33137 ft 436 kts 349°
2026-04-23 04:31 46.34953 11.56870 33528 ft 435 kts 349°
2026-04-23 04:32 46.37912 11.55981 33942 ft 434 kts 349°
2026-04-23 04:32 46.40870 11.55091 34306 ft 434 kts 349°
2026-04-23 04:32 46.43830 11.54200 34583 ft 434 kts 349°
2026-04-23 04:32 46.46788 11.53308 34868 ft 435 kts 348°
2026-04-23 04:33 46.49749 11.52414 35188 ft 434 kts 348°
2026-04-23 04:33 46.52704 11.51520 35505 ft 433 kts 348°
2026-04-23 04:33 46.55650 11.50629 35782 ft 433 kts 348°
2026-04-23 04:33 46.58604 11.49734 36040 ft 434 kts 348°
2026-04-23 04:34 46.61557 11.48838 36334 ft 433 kts 348°
2026-04-23 04:34 46.64466 11.47955 36632 ft 432 kts 348°
2026-04-23 04:34 46.67416 11.47058 36893 ft 432 kts 348°
2026-04-23 04:34 46.70356 11.46163 37139 ft 433 kts 348°
2026-04-23 04:35 46.73320 11.45260 37415 ft 432 kts 348°
2026-04-23 04:35 46.76272 11.44360 37683 ft 432 kts 348°
2026-04-23 04:35 46.79217 11.43460 37934 ft 432 kts 348°
2026-04-23 04:35 46.82129 11.42570 38193 ft 432 kts 348°
2026-04-23 04:36 46.88054 11.40755 38260 ft 437 kts 348°
2026-04-23 04:36 46.93998 11.38932 38277 ft 433 kts 348°
2026-04-23 04:37 46.99908 11.37555 38296 ft 429 kts 358°
2026-04-23 04:37 47.05893 11.37499 38332 ft 429 kts 360°
2026-04-23 04:38 47.11839 11.37518 38358 ft 429 kts 359°
2026-04-23 04:38 47.17818 11.37494 38380 ft 429 kts 359°
2026-04-23 04:39 47.23775 11.37440 38384 ft 430 kts 359°
2026-04-23 04:39 47.29777 11.37378 38373 ft 431 kts 359°
2026-04-23 04:40 47.35785 11.37315 38361 ft 431 kts 359°
2026-04-23 04:40 47.41788 11.37253 38364 ft 432 kts 359°
2026-04-23 04:41 47.47776 11.37191 38363 ft 432 kts 359°
2026-04-23 04:41 47.53802 11.37129 38343 ft 433 kts 359°
2026-04-23 04:42 47.59833 11.37067 38328 ft 434 kts 359°
2026-04-23 04:42 47.65868 11.37005 38332 ft 434 kts 359°
2026-04-23 04:43 47.71911 11.36942 38321 ft 434 kts 360°
2026-04-23 04:43 47.77941 11.36880 38330 ft 433 kts 360°
2026-04-23 04:44 47.83968 11.36817 38319 ft 433 kts 360°
2026-04-23 04:44 47.89990 11.36551 38329 ft 432 kts 356°
2026-04-23 04:45 47.96004 11.35952 38319 ft 432 kts 356°
2026-04-23 04:45 48.01968 11.35406 38324 ft 431 kts 357°
2026-04-23 04:46 48.07958 11.34841 38319 ft 431 kts 354°
2026-04-23 04:46 48.13913 11.33694 38329 ft 431 kts 352°
2026-04-23 04:47 48.19847 11.32458 38320 ft 431 kts 353°
2026-04-23 04:47 48.25783 11.31181 38319 ft 431 kts 348°
2026-04-23 04:48 48.31423 11.28222 38321 ft 432 kts 339°
2026-04-23 04:48 48.36964 11.24712 38330 ft 432 kts 338°
2026-04-23 04:49 48.42511 11.21209 38322 ft 432 kts 339°
2026-04-23 04:49 48.48075 11.17735 38328 ft 432 kts 339°
2026-04-23 04:50 48.53607 11.14292 38323 ft 433 kts 339°
2026-04-23 04:50 48.56398 11.12550 37986 ft 433 kts 342°
2026-04-23 04:50 48.59188 11.10809 38176 ft 434 kts 343°
2026-04-23 04:51 48.64828 11.07292 38330 ft 441 kts 343°
2026-04-23 04:51 48.70562 11.03706 38361 ft 450 kts 343°
2026-04-23 04:52 48.76373 11.00054 38337 ft 453 kts 342°
2026-04-23 04:52 48.82179 10.96394 38353 ft 455 kts 343°
2026-04-23 04:53 48.88029 10.92698 38344 ft 455 kts 343°
2026-04-23 04:53 48.93864 10.89004 38363 ft 454 kts 343°
2026-04-23 04:54 48.99685 10.85310 38358 ft 452 kts 343°
2026-04-23 04:54 49.05481 10.81623 38365 ft 451 kts 343°
2026-04-23 04:55 49.11270 10.77930 38351 ft 449 kts 343°
2026-04-23 04:55 49.16997 10.74269 38357 ft 448 kts 343°
2026-04-23 04:56 49.22730 10.70501 38343 ft 448 kts 341°
2026-04-23 04:56 49.28371 10.66462 38343 ft 449 kts 340°
2026-04-23 04:57 49.34017 10.62364 38353 ft 449 kts 340°
2026-04-23 04:57 49.39689 10.58274 38349 ft 450 kts 340°
2026-04-23 04:58 49.45345 10.54210 38360 ft 452 kts 340°
2026-04-23 04:58 49.51059 10.50100 38359 ft 453 kts 340°
2026-04-23 04:59 49.56756 10.45992 38362 ft 454 kts 340°
2026-04-23 04:59 49.62495 10.41841 38363 ft 456 kts 340°
2026-04-23 05:00 49.68258 10.37663 38360 ft 457 kts 340°
2026-04-23 05:00 49.73987 10.33496 38368 ft 457 kts 340°
2026-04-23 05:01 49.79752 10.29293 38365 ft 458 kts 340°
2026-04-23 05:01 49.85515 10.25080 38374 ft 458 kts 340°
2026-04-23 05:02 49.91249 10.20878 38376 ft 458 kts 340°
2026-04-23 05:02 49.97016 10.16640 38381 ft 458 kts 340°
2026-04-23 05:03 50.02780 10.12394 38373 ft 458 kts 340°
2026-04-23 05:03 50.08538 10.08140 38375 ft 458 kts 339°
2026-04-23 05:04 50.14302 10.03870 38369 ft 459 kts 339°
2026-04-23 05:04 50.20065 9.99590 38359 ft 458 kts 339°
2026-04-23 05:05 50.25822 9.95302 38368 ft 458 kts 339°
2026-04-23 05:05 50.31545 9.91029 38377 ft 458 kts 339°
2026-04-23 05:06 50.37304 9.86717 38372 ft 458 kts 339°
2026-04-23 05:06 50.43071 9.82388 38370 ft 459 kts 339°
2026-04-23 05:07 50.48835 9.78048 38365 ft 459 kts 339°
2026-04-23 05:07 50.54597 9.73698 38375 ft 459 kts 339°
2026-04-23 05:08 50.60326 9.69361 38369 ft 460 kts 339°
2026-04-23 05:08 50.66100 9.64979 38365 ft 460 kts 339°
2026-04-23 05:09 50.71770 9.60252 38354 ft 466 kts 329°
2026-04-23 05:09 50.76538 9.53245 38370 ft 473 kts 313°
2026-04-23 05:10 50.80668 9.45193 38363 ft 474 kts 311°
2026-04-23 05:10 50.84826 9.37005 38368 ft 474 kts 312°
2026-04-23 05:11 50.88967 9.28968 38373 ft 474 kts 312°
2026-04-23 05:11 50.93152 9.20885 38370 ft 474 kts 312°
2026-04-23 05:12 50.97336 9.12784 38374 ft 474 kts 312°
2026-04-23 05:12 51.01515 9.04659 38370 ft 475 kts 312°
2026-04-23 05:13 51.04986 8.97888 38373 ft 475 kts 312°
2026-04-23 05:14 51.11244 8.85640 38385 ft 475 kts 312°
2026-04-23 05:14 51.15009 8.76957 38391 ft 479 kts 300°
2026-04-23 05:15 51.18027 8.67551 38386 ft 480 kts 298°
2026-04-23 05:15 51.21019 8.58035 38381 ft 480 kts 299°
2026-04-23 05:16 51.24056 8.48534 38392 ft 480 kts 299°
2026-04-23 05:16 51.27110 8.39043 38397 ft 481 kts 299°
2026-04-23 05:17 51.30163 8.29528 38400 ft 481 kts 299°
2026-04-23 05:17 51.33205 8.20001 38405 ft 481 kts 299°
2026-04-23 05:18 51.36235 8.10468 38408 ft 481 kts 299°
2026-04-23 05:18 51.39263 8.00907 38408 ft 481 kts 298°
2026-04-23 05:19 51.42311 7.91344 38404 ft 482 kts 300°
2026-04-23 05:19 51.45473 7.81963 38408 ft 481 kts 301°
2026-04-23 05:20 51.48682 7.72532 38401 ft 482 kts 300°
2026-04-23 05:20 51.51863 7.63080 38401 ft 482 kts 300°
2026-04-23 05:21 51.55033 7.53575 38400 ft 482 kts 300°
2026-04-23 05:21 51.58191 7.44055 38408 ft 482 kts 300°
2026-04-23 05:22 51.61344 7.34517 38410 ft 482 kts 300°
2026-04-23 05:22 51.64468 7.25030 38417 ft 483 kts 300°
2026-04-23 05:23 51.67611 7.15452 38422 ft 483 kts 300°
2026-04-23 05:23 51.70744 7.05867 38426 ft 483 kts 299°
2026-04-23 05:24 51.73871 6.96265 38432 ft 483 kts 299°
2026-04-23 05:24 51.76987 6.86656 38431 ft 483 kts 299°
2026-04-23 05:25 51.80080 6.77082 38423 ft 483 kts 299°
2026-04-23 05:25 51.83185 6.67433 38433 ft 484 kts 299°
2026-04-23 05:26 51.86280 6.57778 38427 ft 484 kts 298°
2026-04-23 05:26 51.89373 6.48089 38438 ft 484 kts 298°
2026-04-23 05:27 51.92453 6.38405 38441 ft 484 kts 298°
2026-04-23 05:27 51.95529 6.28698 38440 ft 484 kts 298°
2026-04-23 05:28 51.98970 6.19432 38463 ft 482 kts 306°
2026-04-23 05:28 52.02831 6.10515 38452 ft 482 kts 307°
2026-04-23 05:29 52.06698 6.01602 38453 ft 482 kts 307°
2026-04-23 05:29 52.10530 5.92632 38456 ft 483 kts 306°
2026-04-23 05:30 52.14340 5.83622 38453 ft 483 kts 306°
2026-04-23 05:30 52.18115 5.74652 38456 ft 483 kts 306°
2026-04-23 05:31 52.21908 5.65610 38452 ft 483 kts 306°
2026-04-23 05:31 52.25698 5.56550 38448 ft 483 kts 306°
2026-04-23 05:32 52.29482 5.47472 38458 ft 483 kts 306°
2026-04-23 05:32 52.33252 5.38395 38453 ft 483 kts 305°
2026-04-23 05:33 52.36928 5.29511 38453 ft 483 kts 305°
2026-04-23 05:33 52.40685 5.20402 38459 ft 482 kts 305°
2026-04-23 05:34 52.44434 5.11279 38459 ft 482 kts 305°
2026-04-23 05:34 52.48176 5.02141 38447 ft 482 kts 305°
2026-04-23 05:35 52.51904 4.93004 38453 ft 482 kts 304°
2026-04-23 05:35 52.55623 4.83857 38454 ft 481 kts 304°
2026-04-23 05:36 52.59335 4.74692 38468 ft 481 kts 304°
2026-04-23 05:36 52.63035 4.65526 38468 ft 481 kts 304°
2026-04-23 05:37 52.66724 4.56353 38459 ft 480 kts 304°
2026-04-23 05:37 52.70407 4.47161 38473 ft 480 kts 304°
2026-04-23 05:38 52.74079 4.37968 38473 ft 480 kts 304°
2026-04-23 05:38 52.77535 4.28566 38474 ft 479 kts 299°
2026-04-23 05:39 52.80746 4.18918 38473 ft 479 kts 298°
2026-04-23 05:39 52.83923 4.09325 38473 ft 478 kts 299°
2026-04-23 05:40 52.87142 3.99708 38474 ft 478 kts 299°
2026-04-23 05:40 52.90368 3.90091 38474 ft 477 kts 299°
2026-04-23 05:41 52.93584 3.80467 38481 ft 476 kts 298°
2026-04-23 05:41 52.96778 3.70868 38479 ft 475 kts 298°
2026-04-23 05:42 52.99946 3.61304 38476 ft 474 kts 298°
2026-04-23 05:42 53.03119 3.51691 38478 ft 474 kts 298°
2026-04-23 05:43 53.06277 3.42084 38472 ft 473 kts 298°
2026-04-23 05:43 53.09391 3.32457 38462 ft 472 kts 294°
2026-04-23 05:44 53.11359 3.22089 38476 ft 469 kts 281°
2026-04-23 05:44 53.12684 3.11528 38467 ft 469 kts 280°
2026-04-23 05:45 53.14025 3.00902 38484 ft 469 kts 281°
2026-04-23 05:45 53.15407 2.90268 38488 ft 469 kts 281°
2026-04-23 05:46 53.16793 2.79651 38490 ft 469 kts 281°
2026-04-23 05:46 53.18168 2.69023 38492 ft 469 kts 281°
2026-04-23 05:47 53.19533 2.58385 38494 ft 469 kts 281°
2026-04-23 05:47 53.20890 2.47726 38490 ft 469 kts 281°
2026-04-23 05:48 53.22217 2.37141 38498 ft 469 kts 281°
2026-04-23 05:48 53.23543 2.26461 38496 ft 469 kts 281°
2026-04-23 05:49 53.24863 2.15759 38499 ft 469 kts 281°
2026-04-23 05:49 53.26172 2.05071 38504 ft 469 kts 281°
2026-04-23 05:50 53.27468 1.94398 38504 ft 469 kts 281°
2026-04-23 05:50 53.28758 1.83695 38505 ft 468 kts 281°
2026-04-23 05:51 53.30027 1.73085 38509 ft 468 kts 281°
2026-04-23 05:51 53.31294 1.62405 38507 ft 467 kts 281°
2026-04-23 05:52 53.32543 1.51803 38505 ft 466 kts 281°
2026-04-23 05:52 53.33964 1.41241 38505 ft 466 kts 284°
2026-04-23 05:53 53.35548 1.30722 38507 ft 465 kts 284°
2026-04-23 05:53 53.37104 1.20210 38509 ft 464 kts 283°
2026-04-23 05:54 53.38618 1.09695 38510 ft 463 kts 283°
2026-04-23 05:54 53.40100 0.99254 38512 ft 462 kts 283°
2026-04-23 05:55 53.41575 0.88789 38513 ft 461 kts 283°
2026-04-23 05:55 53.43043 0.78312 38515 ft 460 kts 283°
2026-04-23 05:56 53.44488 0.67930 38520 ft 459 kts 283°
2026-04-23 05:56 53.45930 0.57506 38515 ft 459 kts 283°
2026-04-23 05:57 53.47362 0.47078 38519 ft 458 kts 283°
2026-04-23 05:57 53.48783 0.36672 38522 ft 457 kts 283°
2026-04-23 05:58 53.50208 0.26232 38515 ft 458 kts 283°
2026-04-23 05:58 53.51617 0.15858 38517 ft 457 kts 283°
2026-04-23 05:59 53.53019 0.05428 38524 ft 456 kts 283°
2026-04-23 05:59 53.54390 -0.04986 38530 ft 455 kts 283°
2026-04-23 06:00 53.55752 -0.15394 38536 ft 455 kts 283°
2026-04-23 06:00 53.57260 -0.25653 38519 ft 453 kts 294°
2026-04-23 06:01 53.60132 -0.32998 38534 ft 449 kts 316°
2026-04-23 06:01 53.62520 -0.36247 38544 ft 446 kts 328°
2026-04-23 06:01 53.65130 -0.39075 38540 ft 446 kts 328°
2026-04-23 06:02 53.70316 -0.44818 38532 ft 446 kts 327°
2026-04-23 06:02 53.75450 -0.50755 38531 ft 447 kts 327°
2026-04-23 06:03 53.80573 -0.56729 38535 ft 447 kts 326°
2026-04-23 06:03 53.85672 -0.62678 38533 ft 448 kts 326°
2026-04-23 06:04 53.90798 -0.68668 38534 ft 448 kts 326°
2026-04-23 06:04 53.95934 -0.74687 38539 ft 448 kts 326°
2026-04-23 06:05 54.01069 -0.80721 38541 ft 448 kts 326°
2026-04-23 06:05 54.06293 -0.86503 38546 ft 447 kts 330°
2026-04-23 06:06 54.11685 -0.91810 38553 ft 447 kts 331°
2026-04-23 06:06 54.17086 -0.97088 38554 ft 447 kts 331°
2026-04-23 06:07 54.22463 -1.02428 38551 ft 447 kts 330°
2026-04-23 06:07 54.27794 -1.07781 38555 ft 446 kts 330°
2026-04-23 06:08 54.33139 -1.13176 38555 ft 446 kts 330°
2026-04-23 06:08 54.38484 -1.18585 38553 ft 445 kts 330°
2026-04-23 06:09 54.43818 -1.23999 38561 ft 444 kts 330°
2026-04-23 06:09 54.49134 -1.29410 38564 ft 444 kts 330°
2026-04-23 06:09 54.51796 -1.32127 38427 ft 447 kts 330°
2026-04-23 06:10 54.54495 -1.34884 37899 ft 450 kts 330°
2026-04-23 06:10 54.57181 -1.37634 37318 ft 447 kts 330°
2026-04-23 06:10 54.59804 -1.40327 36740 ft 444 kts 329°
2026-04-23 06:10 54.62453 -1.43048 36113 ft 443 kts 329°
2026-04-23 06:11 54.65101 -1.45771 35456 ft 442 kts 329°
2026-04-23 06:11 54.67742 -1.48489 34853 ft 440 kts 329°
2026-04-23 06:11 54.70359 -1.51187 34386 ft 434 kts 329°
2026-04-23 06:11 54.72940 -1.53852 33876 ft 429 kts 329°
2026-04-23 06:12 54.75485 -1.56485 33403 ft 423 kts 329°
2026-04-23 06:12 54.77993 -1.59082 32968 ft 417 kts 329°
2026-04-23 06:12 54.82910 -1.64185 32081 ft 407 kts 330°
2026-04-23 06:13 54.85330 -1.66703 31634 ft 403 kts 330°
2026-04-23 06:13 54.87724 -1.69196 31200 ft 399 kts 330°
2026-04-23 06:13 54.90093 -1.71669 30779 ft 396 kts 330°
2026-04-23 06:13 54.92443 -1.74123 30313 ft 392 kts 330°
2026-04-23 06:14 54.94765 -1.76553 29882 ft 387 kts 330°
2026-04-23 06:14 54.97030 -1.78925 29446 ft 382 kts 330°
2026-04-23 06:14 54.99327 -1.81334 29007 ft 378 kts 330°
2026-04-23 06:14 55.01536 -1.83655 28595 ft 374 kts 330°
2026-04-23 06:15 55.03756 -1.85989 28161 ft 372 kts 329°
2026-04-23 06:15 55.05965 -1.88315 27723 ft 369 kts 329°
2026-04-23 06:15 55.08168 -1.90637 27295 ft 372 kts 329°
2026-04-23 06:15 55.10378 -1.93109 26867 ft 383 kts 323°
2026-04-23 06:16 55.12363 -1.96278 26420 ft 386 kts 313°
2026-04-23 06:16 55.13984 -1.99992 25972 ft 383 kts 302°
2026-04-23 06:16 55.15342 -2.03996 25567 ft 382 kts 300°
2026-04-23 06:16 55.16646 -2.08036 25158 ft 382 kts 300°
2026-04-23 06:17 55.17938 -2.12079 24721 ft 380 kts 300°
2026-04-23 06:17 55.19226 -2.16103 24282 ft 378 kts 300°
2026-04-23 06:17 55.20501 -2.20058 23819 ft 376 kts 300°
2026-04-23 06:17 55.21790 -2.24033 23351 ft 374 kts 300°
2026-04-23 06:18 55.23076 -2.27988 22910 ft 372 kts 299°
2026-04-23 06:18 55.24350 -2.31899 22495 ft 369 kts 299°
2026-04-23 06:18 55.25620 -2.35803 22086 ft 366 kts 299°
2026-04-23 06:18 55.26879 -2.39675 21679 ft 364 kts 298°
2026-04-23 06:19 55.28131 -2.43531 21275 ft 363 kts 298°
2026-04-23 06:19 55.29374 -2.47367 20877 ft 361 kts 298°
2026-04-23 06:19 55.30613 -2.51197 20478 ft 359 kts 298°
2026-04-23 06:19 55.31840 -2.55002 20091 ft 358 kts 298°
2026-04-23 06:20 55.33050 -2.58755 19697 ft 357 kts 298°
2026-04-23 06:20 55.34270 -2.62545 19306 ft 356 kts 298°
2026-04-23 06:20 55.35484 -2.66318 18914 ft 355 kts 298°
2026-04-23 06:20 55.36694 -2.70085 18484 ft 353 kts 297°
2026-04-23 06:21 55.37900 -2.73847 18058 ft 351 kts 297°
2026-04-23 06:21 55.39097 -2.77589 17652 ft 349 kts 297°
2026-04-23 06:21 55.40285 -2.81305 17245 ft 348 kts 297°
2026-04-23 06:21 55.41463 -2.85000 16870 ft 346 kts 297°
2026-04-23 06:22 55.42638 -2.88686 16487 ft 345 kts 297°
2026-04-23 06:22 55.43810 -2.92369 16097 ft 343 kts 297°
2026-04-23 06:22 55.44965 -2.96007 15724 ft 339 kts 297°
2026-04-23 06:22 55.46064 -2.99644 15352 ft 334 kts 291°
2026-04-23 06:23 55.46636 -3.03512 14986 ft 321 kts 279°
2026-04-23 06:23 55.47019 -3.07322 14633 ft 312 kts 278°
2026-04-23 06:23 55.47385 -3.11044 14281 ft 304 kts 278°
2026-04-23 06:23 55.47753 -3.14700 13908 ft 300 kts 279°
2026-04-23 06:24 55.48122 -3.18284 13559 ft 294 kts 279°
2026-04-23 06:24 55.48490 -3.21784 13219 ft 286 kts 279°
2026-04-23 06:24 55.48846 -3.25150 12904 ft 279 kts 279°
2026-04-23 06:24 55.49198 -3.28486 12599 ft 273 kts 278°
2026-04-23 06:25 55.49543 -3.31750 12302 ft 268 kts 278°
2026-04-23 06:25 55.50023 -3.34890 11969 ft 265 kts 297°
2026-04-23 06:25 55.51187 -3.37334 11717 ft 258 kts 317°
2026-04-23 06:25 55.52554 -3.39395 11442 ft 258 kts 319°
2026-04-23 06:26 55.53938 -3.41424 11154 ft 259 kts 319°
2026-04-23 06:26 55.55325 -3.43461 10868 ft 260 kts 319°
2026-04-23 06:26 55.56720 -3.45528 10571 ft 262 kts 318°
2026-04-23 06:26 55.58116 -3.47612 10255 ft 263 kts 318°
2026-04-23 06:27 55.59496 -3.49684 9914 ft 264 kts 318°
2026-04-23 06:27 55.60863 -3.51740 9763 ft 251 kts 318°
2026-04-23 06:27 55.62183 -3.53730 9427 ft 248 kts 317°
2026-04-23 06:27 55.63498 -3.55717 9020 ft 248 kts 318°
2026-04-23 06:28 55.64824 -3.57676 8663 ft 248 kts 319°
2026-04-23 06:28 55.66161 -3.59600 8276 ft 247 kts 319°
2026-04-23 06:28 55.67477 -3.61492 7915 ft 246 kts 319°
2026-04-23 06:28 55.68805 -3.63403 7571 ft 245 kts 319°
2026-04-23 06:29 55.70102 -3.65367 7184 ft 245 kts 316°
2026-04-23 06:29 55.71365 -3.67376 6886 ft 242 kts 316°
2026-04-23 06:29 55.72628 -3.69388 6586 ft 244 kts 316°
2026-04-23 06:29 55.73893 -3.71400 6305 ft 245 kts 317°
2026-04-23 06:30 55.75166 -3.73420 6031 ft 246 kts 317°
2026-04-23 06:30 55.76538 -3.75237 5744 ft 247 kts 326°
2026-04-23 06:30 55.77901 -3.77047 5455 ft 242 kts 320°
2026-04-23 06:30 55.79276 -3.78631 5171 ft 232 kts 344°
2026-04-23 06:31 55.80801 -3.78516 4912 ft 216 kts 27°
2026-04-23 06:31 55.81822 -3.76760 4733 ft 201 kts 64°
2026-04-23 06:31 55.82452 -3.74594 4526 ft 196 kts 63°
2026-04-23 06:31 55.83132 -3.72519 4302 ft 193 kts 61°
2026-04-23 06:32 55.83814 -3.70484 4099 ft 192 kts 61°
2026-04-23 06:32 55.84502 -3.68431 4058 ft 196 kts 61°
2026-04-23 06:32 55.85202 -3.66342 3812 ft 195 kts 60°
2026-04-23 06:32 55.85892 -3.64286 3566 ft 192 kts 60°
2026-04-23 06:33 55.86571 -3.62263 3294 ft 189 kts 60°
2026-04-23 06:33 55.87231 -3.60301 3042 ft 185 kts 60°
2026-04-23 06:33 55.87881 -3.58367 2799 ft 174 kts 61°
2026-04-23 06:33 55.88476 -3.56598 2568 ft 164 kts 60°
2026-04-23 06:34 55.89043 -3.54911 2339 ft 153 kts 60°
2026-04-23 06:34 55.89574 -3.53331 2128 ft 145 kts 60°
2026-04-23 06:34 55.90083 -3.51816 1942 ft 143 kts 60°
2026-04-23 06:34 55.90586 -3.50323 1735 ft 139 kts 60°
2026-04-23 06:35 55.91083 -3.48846 1546 ft 137 kts 60°
2026-04-23 06:35 55.91564 -3.47411 1351 ft 136 kts 60°
2026-04-23 06:35 55.92053 -3.45960 1155 ft 136 kts 60°
2026-04-23 06:35 55.92540 -3.44520 961 ft 135 kts 60°
2026-04-23 06:36 55.93022 -3.43088 768 ft 136 kts 60°
2026-04-23 06:36 55.93516 -3.41624 564 ft 138 kts 59°
2026-04-23 06:36 55.94010 -3.40176 353 ft 135 kts 59°
2026-04-23 06:36 55.94492 -3.38759 170 ft 133 kts 60°
2026-04-23 06:37 55.94941 -3.37422 106 ft 106 kts 59°
2026-04-23 06:37 55.95204 -3.36646 107 ft 24 kts 58°
2026-04-23 06:37 55.95260 -3.36465 105 ft 13 kts 87°
2026-04-23 06:37 55.95197 -3.36356 104 ft 13 kts 151°
2026-04-23 06:38 55.95148 -3.36271 106 ft 10 kts 114°
2026-04-23 06:38 55.95127 -3.36157 105 ft 10 kts 108°
2026-04-23 06:38 55.95106 -3.36047 106 ft 9 kts 109°
2026-04-23 06:38 55.95081 -3.35937 104 ft 10 kts 115°
2026-04-23 06:39 55.95060 -3.35863 106 ft 0 kts 117°
2026-04-23 06:39 55.95057 -3.35856 106 ft 1 kts 120°
2026-04-23 06:39 55.95025 -3.35836 106 ft 10 kts 187°
2026-04-23 06:39 55.94948 -3.35859 106 ft 12 kts 159°
2026-04-23 06:40 55.94899 -3.35749 106 ft 11 kts 119°
2026-04-23 06:40 55.94861 -3.35629 105 ft 11 kts 118°
2026-04-23 06:40 55.94827 -3.35509 106 ft 11 kts 118°
2026-04-23 06:40 55.94801 -3.35454 106 ft 4 kts 162°
2026-04-23 06:41 55.94773 -3.35471 106 ft 5 kts 208°
2026-04-23 06:41 55.94753 -3.35490 106 ft 1 kts 208°
2026-04-23 06:41 55.94751 -3.35492 106 ft 0 kts 208°